Flag for Germany Weather past 2 weeks in Lohne (Oldenburg), Lower Saxony, Germany

Now
59 °F

Scattered clouds.


Feels Like: 58 °F
Forecast: 54 / 62 °F
Wind: 7 mph from Southwest

Location: Bremen Airport

Current Time: Jul 28, 2015 at 9:53:51 PM

Latest Report: Jul 28, 2015 at 9:20 PM


Visibility: N/A

Pressure: 29.62 "Hg

Humidity: 77%

Dew point: 52 °F

Location of Lohne (Oldenburg)Location

Historic Weather in Lohne (Oldenburg) — Graph

°F

Lohne (Oldenburg) temperature yesterday

Maximum temperature yesterday: 66 °F (at 1:50 PM)
Minimum temperature yesterday: 55 °F (at 3:50 AM)
Average temperature yesterday: 60 °F

Past Weeks' High & Low Weather Summary

 TemperatureHumidityPressure
High88 °F (Jul 17, 2:20 PM)100% (Jul 14, 3:20 AM)30.12 "Hg (Jul 14, 3:20 AM)
Low50 °F (Jul 20, 3:50 AM)35% (Jul 17, 4:20 PM)29.42 "Hg (Jul 25, 12:20 PM)
Average64 °F77%29.85 "Hg
* Reported Jul 13 8:20 PM — Jul 28 8:20 PM, Lohne (Oldenburg), Weather by CustomWeather, © 2015

Note: Actual official high and low records may vary slightly from our data, if they occured in-between our weather recording intervals... More about our weather records

Advertising

Lohne (Oldenburg) weather history for previous 24 hours

 ConditionsComfort  
Time TempWeatherWind HumidityBarometerVisibility
8:20 PM
Tue, Jul 28
61 °FPartly sunny.9 mph72%29.62 "HgN/A
7:50 PM63 °FBroken clouds.12 mph73%29.62 "HgN/A
7:20 PM63 °FBroken clouds.17 mph73%29.62 "HgN/A
6:50 PM63 °FBroken clouds.16 mph77%29.62 "HgN/A
6:20 PM64 °FBroken clouds.12 mph78%29.62 "HgN/A
5:50 PM63 °FSprinkles. Broken clouds.15 mph77%29.62 "HgN/A
5:20 PM61 °FSprinkles. Broken clouds.20 mph83%29.62 "HgN/A
4:50 PM61 °FSprinkles. Broken clouds.14 mph88%29.62 "HgN/A
4:20 PM61 °FBroken clouds.16 mph88%29.59 "HgN/A
3:50 PM61 °FSprinkles. Broken clouds.23 mph83%29.59 "HgN/A
3:20 PM64 °FBroken clouds.21 mph73%29.59 "HgN/A
2:50 PM64 °FBroken clouds.18 mph73%29.59 "HgN/A
2:20 PM64 °FBroken clouds.24 mph73%29.56 "HgN/A
1:50 PM66 °FBroken clouds.23 mph64%29.56 "HgN/A
1:20 PM64 °FBroken clouds.21 mph68%29.56 "HgN/A
12:50 PM66 °FBroken clouds.23 mph64%29.56 "HgN/A
12:20 PM66 °FBroken clouds.21 mph68%29.56 "HgN/A
11:20 AM61 °FPartly sunny.20 mph83%29.56 "HgN/A
10:50 AM63 °FPartly sunny.20 mph77%29.56 "HgN/A
10:20 AM61 °FPartly sunny.18 mph83%29.56 "HgN/A
9:50 AM59 °FPartly sunny.17 mph88%29.56 "HgN/A
9:20 AM57 °FPartly sunny.16 mph94%29.53 "HgN/A
8:50 AM59 °FPartly sunny.17 mph88%29.53 "HgN/A
8:20 AM59 °FPartly sunny.16 mph88%29.53 "HgN/A
7:50 AM57 °FPartly sunny.18 mph88%29.53 "HgN/A
7:20 AM57 °FPartly sunny.16 mph94%29.53 "HgN/A
6:50 AM57 °FPartly sunny.15 mph88%29.53 "HgN/A
6:20 AM57 °FPassing clouds.16 mph88%29.50 "HgN/A
5:50 AM57 °FPassing clouds.14 mph88%29.50 "HgN/A
5:20 AM57 °FPassing clouds.15 mph88%29.50 "HgN/A
4:50 AM57 °FPassing clouds.15 mph88%29.50 "HgN/A
4:20 AM57 °FPassing clouds.16 mph88%29.50 "HgN/A
3:50 AM59 °FPassing clouds.14 mph88%29.50 "HgN/A
3:20 AM59 °FPartly cloudy.13 mph88%29.50 "HgN/A
2:50 AM59 °FSprinkles. Partly cloudy.13 mph94%29.50 "HgN/A
2:20 AM59 °FSprinkles. Partly cloudy.12 mph94%29.50 "HgN/A
1:50 AM61 °FSprinkles. Partly cloudy.12 mph88%29.50 "HgN/A
1:20 AM61 °FPartly cloudy.14 mph88%29.50 "HgN/A
12:50 AM61 °FSprinkles. Partly cloudy.15 mph88%29.50 "HgN/A
12:20 AM61 °FPassing clouds.12 mph88%29.50 "HgN/A
11:50 PM
Mon, Jul 27
61 °FPassing clouds.13 mph88%29.50 "HgN/A
11:20 PM61 °FPartly cloudy.9 mph94%29.50 "HgN/A
10:50 PM61 °FPartly cloudy.8 mph94%29.50 "HgN/A
10:20 PM61 °FRain showers. Broken clouds.7 mph94%29.50 "Hg5 mi
9:50 PM61 °FSprinkles. Broken clouds.12 mph88%29.53 "HgN/A
9:20 PM61 °FBroken clouds.8 mph88%29.50 "HgN/A
Weather by CustomWeather, © 2015

See weather overviewHow to use our weather pages